| time (UTC) | temp F | wind direction | speed MPH | gust MPH | rain 1hr in | rain 24hr in | rain mn in | humidity % | barometer mb |
| 20260509224931 | 71 | 283 | 0.0 | 1.0 | 0.00 | 0.00 | 0.00 | 66 | 1001.0 |
| 20260509224425 | 71 | 288 | 0.0 | 3.0 | 0.00 | 0.00 | 0.00 | 66 | 1001.0 |
| 20260509223919 | 71 | 46 | 0.0 | 3.0 | 0.00 | 0.00 | 0.00 | 64 | 1001.0 |
| 20260509223638 | 71 | 21 | 0.0 | 2.0 | 0.00 | 0.00 | 0.00 | 66 | 1001.1 |
| 20260509223126 | 71 | 68 | 0.0 | 2.0 | 0.00 | 0.00 | 0.00 | 66 | 1001.1 |
| 20260509222400 | 71 | 56 | 0.0 | 2.0 | 0.00 | 0.00 | 0.00 | 69 | 1001.1 |
| 20260509221855 | 71 | 56 | 1.0 | 5.0 | 0.00 | 0.00 | 0.00 | 67 | 1001.0 |
| 20260509221349 | 71 | 96 | 1.0 | 5.0 | 0.00 | 0.00 | 0.00 | 67 | 1001.0 |
| 20260509220844 | 71 | 56 | 2.0 | 5.0 | 0.00 | 0.00 | 0.00 | 66 | 1001.0 |
| 20260509220337 | 72 | 87 | 2.0 | 4.0 | 0.00 | 0.00 | 0.00 | 65 | 1001.1 |
| 20260509215831 | 73 | 73 | 1.0 | 3.0 | 0.00 | 0.00 | 0.00 | 65 | 1001.0 |
| 20260509215324 | 73 | 49 | 0.0 | 3.0 | 0.00 | 0.00 | 0.00 | 64 | 1001.0 |
| 20260509215039 | 72 | 49 | 1.0 | 3.0 | 0.00 | 0.00 | 0.00 | 66 | 1001.0 |
| 20260509214314 | 72 | 49 | 1.0 | 4.0 | 0.00 | 0.00 | 0.00 | 65 | 1000.9 |
| 20260509213301 | 73 | 75 | 1.0 | 2.0 | 0.00 | 0.00 | 0.00 | 62 | 1000.9 |
| 20260509212755 | 73 | 277 | 0.0 | 2.0 | 0.00 | 0.00 | 0.00 | 62 | 1000.9 |
| 20260509212250 | 73 | 91 | 1.0 | 3.0 | 0.00 | 0.00 | 0.00 | 62 | 1000.9 |
| 20260509211745 | 73 | 84 | 1.0 | 5.0 | 0.00 | 0.00 | 0.00 | 61 | 1000.8 |
| 20260509211504 | 73 | 240 | 2.0 | 7.0 | 0.00 | 0.00 | 0.00 | 60 | 1000.7 |
| 20260509210951 | 72 | 170 | 2.0 | 7.0 | 0.00 | 0.00 | 0.00 | 62 | 1000.6 |
| 20260509210225 | 72 | 68 | 2.0 | 5.0 | 0.00 | 0.00 | 0.00 | 66 | 1000.7 |
| 20260509205945 | 72 | 56 | 2.0 | 6.0 | 0.00 | 0.00 | 0.00 | 64 | 1000.7 |
| 20260509205444 | 71 | 48 | 2.0 | 7.0 | 0.00 | 0.00 | 0.00 | 67 | 1000.6 |
| 20260509204707 | 72 | 82 | 2.0 | 6.0 | 0.00 | 0.00 | 0.00 | 68 | 1000.6 |
| 20260509204201 | 71 | 65 | 2.0 | 5.0 | 0.00 | 0.00 | 0.00 | 66 | 1000.8 |
| 20260509203920 | 72 | 58 | 2.0 | 5.0 | 0.00 | 0.00 | 0.00 | 65 | 1000.7 |
| 20260509203149 | 73 | 147 | 1.0 | 6.0 | 0.00 | 0.00 | 0.00 | 63 | 1000.9 |
| 20260509202644 | 74 | 251 | 1.0 | 6.0 | 0.00 | 0.00 | 0.00 | 60 | 1001.0 |
| 20260509202137 | 74 | 248 | 2.0 | 7.0 | 0.00 | 0.00 | 0.00 | 55 | 1001.0 |
| 20260509201631 | 74 | 233 | 2.0 | 7.0 | 0.00 | 0.00 | 0.00 | 53 | 1001.0 |
| 20260509201125 | 74 | 173 | 1.0 | 5.0 | 0.00 | 0.00 | 0.00 | 56 | 1001.1 |
| 20260509200619 | 73 | 276 | 1.0 | 5.0 | 0.00 | 0.00 | 0.00 | 55 | 1001.1 |
| 20260509200338 | 73 | 233 | 0.0 | 7.0 | 0.00 | 0.00 | 0.00 | 62 | 1001.2 |
| 20260509195607 | 73 | 179 | 1.0 | 7.0 | 0.00 | 0.00 | 0.00 | 58 | 1001.3 |
| 20260509195100 | 73 | 186 | 1.0 | 2.0 | 0.00 | 0.00 | 0.00 | 58 | 1001.4 |
| 20260509194555 | 73 | 206 | 0.0 | 3.0 | 0.00 | 0.00 | 0.00 | 58 | 1001.4 |
| 20260509194049 | 73 | 240 | 0.0 | 3.0 | 0.00 | 0.00 | 0.00 | 61 | 1001.4 |
| 20260509193544 | 73 | 41 | 0.0 | 2.0 | 0.00 | 0.00 | 0.00 | 60 | 1001.4 |
| 20260509193037 | 73 | 235 | 0.0 | 2.0 | 0.00 | 0.00 | 0.00 | 60 | 1001.5 |
| 20260509192530 | 73 | 250 | 0.0 | 2.0 | 0.00 | 0.00 | 0.00 | 58 | 1001.5 |
| 20260509192024 | 72 | 229 | 0.0 | 1.0 | 0.00 | 0.00 | 0.00 | 62 | 1001.4 |
| 20260509191518 | 71 | 229 | 0.0 | 2.0 | 0.00 | 0.00 | 0.00 | 63 | 1001.6 |
| 20260509191014 | 70 | 229 | 0.0 | 2.0 | 0.00 | 0.00 | 0.00 | 63 | 1001.7 |
| 20260509190507 | 69 | 229 | 0.0 | 2.0 | 0.00 | 0.00 | 0.00 | 63 | 1001.9 |
| 20260509190001 | 69 | 158 | 0.0 | 0.0 | 0.00 | 0.00 | 0.00 | 67 | 1002.1 |
| 20260509185454 | 68 | 158 | 0.0 | 0.0 | 0.00 | 0.00 | 0.00 | 69 | 1002.2 |
| 20260509184949 | 68 | 158 | 0.0 | 1.0 | 0.00 | 0.00 | 0.00 | 67 | 1002.2 |
| 20260509184444 | 68 | 158 | 0.0 | 2.0 | 0.00 | 0.00 | 0.00 | 65 | 1002.4 |
| 20260509184155 | 69 | 158 | 0.0 | 3.0 | 0.00 | 0.00 | 0.00 | 64 | 1002.4 |
| 20260509183430 | 69 | 241 | 0.0 | 3.0 | 0.00 | 0.00 | 0.00 | 63 | 1002.4 |
| 20260509182925 | 70 | 226 | 0.0 | 4.0 | 0.00 | 0.00 | 0.00 | 61 | 1002.4 |
| 20260509182419 | 70 | 207 | 1.0 | 6.0 | 0.00 | 0.00 | 0.00 | 59 | 1002.5 |
| 20260509181914 | 71 | 221 | 1.0 | 8.0 | 0.00 | 0.00 | 0.00 | 56 | 1002.4 |
| 20260509181628 | 71 | 195 | 2.0 | 8.0 | 0.00 | 0.00 | 0.00 | 55 | 1002.5 |
| 20260509180901 | 71 | 335 | 2.0 | 5.0 | 0.00 | 0.00 | 0.00 | 56 | 1002.6 |
| 20260509180355 | 71 | 277 | 1.0 | 4.0 | 0.00 | 0.00 | 0.00 | 58 | 1002.6 |
| 20260509175849 | 71 | 236 | 1.0 | 3.0 | 0.00 | 0.00 | 0.00 | 57 | 1002.8 |
| 20260509175344 | 70 | 235 | 2.0 | 7.0 | 0.00 | 0.00 | 0.00 | 57 | 1002.8 |
| 20260509174331 | 70 | 123 | 2.0 | 5.0 | 0.00 | 0.00 | 0.00 | 56 | 1002.9 |
| 20260509173825 | 70 | 229 | 1.0 | 5.0 | 0.00 | 0.00 | 0.00 | 56 | 1002.8 |
| 20260509173319 | 70 | 248 | 2.0 | 6.0 | 0.00 | 0.00 | 0.00 | 56 | 1002.7 |
| 20260509172814 | 71 | 239 | 2.0 | 6.0 | 0.00 | 0.00 | 0.00 | 54 | 1002.8 |
| 20260509172307 | 71 | 119 | 2.0 | 8.0 | 0.00 | 0.00 | 0.00 | 55 | 1002.8 |
| 20260509171801 | 71 | 151 | 1.0 | 8.0 | 0.00 | 0.00 | 0.00 | 54 | 1002.7 |
| 20260509171255 | 71 | 253 | 1.0 | 9.0 | 0.00 | 0.00 | 0.00 | 57 | 1002.8 |
| 20260509171004 | 71 | 172 | 2.0 | 13.0 | 0.00 | 0.00 | 0.00 | 56 | 1002.9 |
| 20260509170244 | 71 | 239 | 3.0 | 13.0 | 0.00 | 0.00 | 0.00 | 55 | 1002.9 |
| 20260509165736 | 71 | 255 | 2.0 | 7.0 | 0.00 | 0.00 | 0.00 | 55 | 1002.9 |
| 20260509165231 | 71 | 264 | 2.0 | 7.0 | 0.00 | 0.00 | 0.00 | 54 | 1002.9 |
| 20260509164725 | 71 | 303 | 2.0 | 8.0 | 0.00 | 0.00 | 0.00 | 54 | 1003.0 |
| 20260509164219 | 71 | 36 | 2.0 | 11.0 | 0.00 | 0.00 | 0.00 | 53 | 1003.0 |
| 20260509163935 | 71 | 291 | 3.0 | 11.0 | 0.00 | 0.00 | 0.00 | 53 | 1002.9 |
| 20260509163209 | 71 | 134 | 3.0 | 11.0 | 0.00 | 0.00 | 0.00 | 52 | 1003.0 |
| 20260509162708 | 71 | 253 | 2.0 | 9.0 | 0.00 | 0.00 | 0.00 | 53 | 1003.0 |
| 20260509162209 | 71 | 100 | 2.0 | 9.0 | 0.00 | 0.00 | 0.00 | 56 | 1002.9 |
| 20260509161709 | 71 | 172 | 3.0 | 9.0 | 0.00 | 0.00 | 0.00 | 54 | 1002.9 |
| 20260509161435 | 71 | 183 | 3.0 | 10.0 | 0.00 | 0.00 | 0.00 | 53 | 1003.1 |
| 20260509160209 | 71 | 175 | 2.0 | 8.0 | 0.00 | 0.00 | 0.00 | 57 | 1003.2 |
| 20260509155930 | 71 | 170 | 2.0 | 7.0 | 0.00 | 0.00 | 0.00 | 58 | 1003.2 |
| 20260509155438 | 71 | 88 | 2.0 | 7.0 | 0.00 | 0.00 | 0.00 | 58 | 1003.2 |
| 20260509154709 | 71 | 203 | 2.0 | 11.0 | 0.00 | 0.00 | 0.00 | 58 | 1003.3 |
| 20260509154208 | 70 | 224 | 2.0 | 11.0 | 0.00 | 0.00 | 0.00 | 59 | 1003.3 |
| 20260509153707 | 70 | 148 | 1.0 | 5.0 | 0.00 | 0.00 | 0.00 | 58 | 1003.2 |
| 20260509153437 | 70 | 127 | 1.0 | 6.0 | 0.00 | 0.00 | 0.00 | 58 | 1003.2 |
| 20260509152704 | 70 | 226 | 1.0 | 6.0 | 0.00 | 0.00 | 0.00 | 60 | 1003.3 |
| 20260509151659 | 69 | 173 | 2.0 | 6.0 | 0.00 | 0.00 | 0.00 | 63 | 1003.6 |
| 20260509151159 | 69 | 226 | 2.0 | 7.0 | 0.00 | 0.00 | 0.00 | 61 | 1003.6 |
| 20260509150659 | 68 | 214 | 2.0 | 7.0 | 0.00 | 0.00 | 0.00 | 63 | 1003.7 |
| 20260509150423 | 68 | 243 | 3.0 | 8.0 | 0.00 | 0.00 | 0.00 | 61 | 1003.8 |
| 20260509145918 | 68 | 222 | 2.0 | 8.0 | 0.00 | 0.00 | 0.00 | 62 | 1003.8 |
| 20260509145150 | 68 | 220 | 2.0 | 6.0 | 0.00 | 0.00 | 0.00 | 63 | 1003.9 |
| 20260509144908 | 68 | 219 | 1.0 | 4.0 | 0.00 | 0.00 | 0.00 | 64 | 1004.0 |
| 20260509144149 | 68 | 225 | 1.0 | 4.0 | 0.00 | 0.00 | 0.00 | 65 | 1004.0 |
| 20260509143909 | 67 | 109 | 1.0 | 4.0 | 0.00 | 0.00 | 0.00 | 66 | 1004.1 |
| 20260509143147 | 67 | 214 | 1.0 | 4.0 | 0.00 | 0.00 | 0.00 | 68 | 1004.0 |
| 20260509142647 | 66 | 235 | 1.0 | 5.0 | 0.00 | 0.00 | 0.00 | 67 | 1004.0 |
| 20260509142144 | 66 | 210 | 1.0 | 5.0 | 0.00 | 0.00 | 0.00 | 67 | 1004.0 |
| 20260509141644 | 66 | 245 | 1.0 | 4.0 | 0.00 | 0.00 | 0.00 | 69 | 1004.0 |
| 20260509141144 | 65 | 265 | 1.0 | 4.0 | 0.00 | 0.00 | 0.00 | 68 | 1003.9 |
| 20260509140644 | 65 | 236 | 1.0 | 5.0 | 0.00 | 0.00 | 0.00 | 70 | 1004.0 |
| 20260509140144 | 65 | 233 | 1.0 | 5.0 | 0.00 | 0.00 | 0.00 | 71 | 1004.0 |
| 20260509135644 | 65 | 221 | 2.0 | 6.0 | 0.00 | 0.00 | 0.00 | 71 | 1004.1 |
| 20260509135144 | 65 | 93 | 1.0 | 6.0 | 0.00 | 0.00 | 0.00 | 70 | 1004.1 |
| 20260509134644 | 64 | 135 | 1.0 | 3.0 | 0.00 | 0.00 | 0.00 | 73 | 1004.1 |
| 20260509134141 | 64 | 221 | 1.0 | 6.0 | 0.00 | 0.00 | 0.00 | 73 | 1004.1 |
| 20260509133639 | 63 | 197 | 1.0 | 6.0 | 0.00 | 0.00 | 0.00 | 73 | 1004.1 |
| 20260509133139 | 63 | 191 | 2.0 | 7.0 | 0.00 | 0.00 | 0.00 | 73 | 1004.2 |
| 20260509132634 | 63 | 276 | 2.0 | 7.0 | 0.00 | 0.00 | 0.00 | 74 | 1004.2 |
| 20260509132134 | 63 | 236 | 2.0 | 8.0 | 0.00 | 0.00 | 0.00 | 73 | 1004.2 |
| 20260509131635 | 63 | 172 | 2.0 | 8.0 | 0.00 | 0.00 | 0.00 | 73 | 1004.2 |
| 20260509131134 | 62 | 198 | 1.0 | 6.0 | 0.00 | 0.00 | 0.00 | 73 | 1004.2 |
| 20260509130634 | 62 | 198 | 1.0 | 5.0 | 0.00 | 0.00 | 0.00 | 74 | 1004.2 |
| 20260509130134 | 62 | 224 | 1.0 | 5.0 | 0.00 | 0.00 | 0.00 | 74 | 1004.1 |
| 20260509125635 | 62 | 194 | 1.0 | 8.0 | 0.00 | 0.00 | 0.00 | 75 | 1004.2 |
| 20260509125135 | 61 | 240 | 2.0 | 8.0 | 0.00 | 0.00 | 0.00 | 75 | 1004.2 |
| 20260509124634 | 61 | 179 | 2.0 | 7.0 | 0.00 | 0.00 | 0.00 | 75 | 1004.3 |
| 20260509124131 | 61 | 202 | 1.0 | 7.0 | 0.00 | 0.00 | 0.00 | 75 | 1004.2 |
| 20260509123630 | 61 | 210 | 1.0 | 5.0 | 0.00 | 0.00 | 0.00 | 75 | 1004.2 |
| 20260509123351 | 61 | 209 | 1.0 | 6.0 | 0.00 | 0.00 | 0.00 | 76 | 1004.2 |
| 20260509122631 | 60 | 234 | 1.0 | 6.0 | 0.00 | 0.00 | 0.00 | 77 | 1004.2 |
| 20260509122131 | 60 | 205 | 1.0 | 5.0 | 0.00 | 0.00 | 0.00 | 78 | 1004.3 |
| 20260509121633 | 60 | 230 | 1.0 | 7.0 | 0.00 | 0.00 | 0.00 | 78 | 1004.4 |
| 20260509121133 | 59 | 181 | 1.0 | 7.0 | 0.00 | 0.00 | 0.00 | 78 | 1004.3 |
| 20260509120633 | 59 | 257 | 1.0 | 7.0 | 0.00 | 0.00 | 0.00 | 79 | 1004.3 |
| 20260509120357 | 59 | 162 | 1.0 | 7.0 | 0.00 | 0.00 | 0.00 | 78 | 1004.3 |
| 20260509115629 | 59 | 212 | 1.0 | 6.0 | 0.00 | 0.00 | 0.00 | 79 | 1004.3 |
| 20260509115129 | 59 | 158 | 2.0 | 8.0 | 0.00 | 0.00 | 0.00 | 78 | 1004.4 |
| 20260509114848 | 58 | 281 | 1.0 | 8.0 | 0.00 | 0.00 | 0.00 | 79 | 1004.3 |
| 20260509114346 | 58 | 245 | 1.0 | 5.0 | 0.00 | 0.00 | 0.00 | 79 | 1004.4 |
| 20260509113627 | 58 | 240 | 1.0 | 3.0 | 0.00 | 0.00 | 0.00 | 79 | 1004.3 |
| 20260509113126 | 58 | 269 | 1.0 | 4.0 | 0.00 | 0.00 | 0.00 | 79 | 1004.4 |
| 20260509112626 | 58 | 238 | 1.0 | 4.0 | 0.00 | 0.00 | 0.00 | 78 | 1004.2 |
| 20260509112126 | 58 | 233 | 1.0 | 4.0 | 0.00 | 0.00 | 0.00 | 78 | 1004.2 |
| 20260509111626 | 58 | 217 | 1.0 | 4.0 | 0.00 | 0.00 | 0.00 | 78 | 1004.2 |
| 20260509111123 | 57 | 240 | 1.0 | 4.0 | 0.00 | 0.00 | 0.00 | 77 | 1004.1 |
| 20260509110624 | 57 | 245 | 1.0 | 4.0 | 0.00 | 0.00 | 0.00 | 77 | 1004.2 |
| 20260509110348 | 57 | 252 | 1.0 | 3.0 | 0.00 | 0.00 | 0.00 | 77 | 1004.3 |
| 20260509105624 | 57 | 240 | 1.0 | 3.0 | 0.00 | 0.00 | 0.00 | 77 | 1004.2 |
| 20260509105124 | 57 | 283 | 0.0 | 2.0 | 0.00 | 0.00 | 0.00 | 77 | 1004.2 |
| 20260509104624 | 57 | 255 | 0.0 | 2.0 | 0.00 | 0.00 | 0.00 | 77 | 1004.2 |
| 20260509104124 | 56 | 180 | 0.0 | 2.0 | 0.00 | 0.00 | 0.00 | 77 | 1004.2 |
| 20260509103625 | 56 | 263 | 0.0 | 3.0 | 0.00 | 0.00 | 0.00 | 77 | 1004.1 |
| 20260509103123 | 56 | 179 | 0.0 | 3.0 | 0.00 | 0.00 | 0.00 | 77 | 1004.0 |
| 20260509102621 | 56 | 234 | 0.0 | 1.0 | 0.00 | 0.00 | 0.00 | 76 | 1004.0 |
| 20260509102115 | 56 | 143 | 0.0 | 0.0 | 0.00 | 0.00 | 0.00 | 75 | 1004.0 |
| 20260509101609 | 56 | 143 | 0.0 | 1.0 | 0.00 | 0.00 | 0.00 | 75 | 1003.9 |
| 20260509101104 | 57 | 143 | 0.0 | 2.0 | 0.00 | 0.00 | 0.00 | 75 | 1004.0 |
| 20260509100815 | 57 | 143 | 0.0 | 2.0 | 0.00 | 0.00 | 0.00 | 74 | 1003.9 |
| 20260509100310 | 57 | 298 | 0.0 | 5.0 | 0.00 | 0.00 | 0.00 | 74 | 1003.9 |
| 20260509095546 | 56 | 305 | 0.0 | 5.0 | 0.00 | 0.00 | 0.00 | 73 | 1003.7 |
| 20260509095040 | 56 | 152 | 0.0 | 0.0 | 0.00 | 0.00 | 0.00 | 73 | 1003.9 |
| 20260509094534 | 57 | 152 | 0.0 | 1.0 | 0.00 | 0.00 | 0.00 | 72 | 1003.8 |
| 20260509094247 | 57 | 152 | 0.0 | 2.0 | 0.00 | 0.00 | 0.00 | 72 | 1003.9 |
| 20260509093520 | 57 | 214 | 0.0 | 3.0 | 0.00 | 0.00 | 0.00 | 71 | 1003.9 |
| 20260509093014 | 57 | 186 | 0.0 | 3.0 | 0.00 | 0.00 | 0.00 | 71 | 1003.9 |
| 20260509092508 | 57 | 256 | 0.0 | 2.0 | 0.00 | 0.00 | 0.00 | 71 | 1004.0 |
| 20260509092002 | 57 | 188 | 0.0 | 2.0 | 0.00 | 0.00 | 0.00 | 70 | 1004.0 |
| 20260509091456 | 57 | 224 | 0.0 | 1.0 | 0.00 | 0.00 | 0.00 | 70 | 1003.9 |
| 20260509090949 | 57 | 224 | 0.0 | 2.0 | 0.00 | 0.00 | 0.00 | 70 | 1003.9 |
| 20260509090204 | 57 | 178 | 0.0 | 3.0 | 0.00 | 0.00 | 0.00 | 70 | 1004.0 |
| 20260509085432 | 57 | 187 | 0.0 | 3.0 | 0.00 | 0.00 | 0.00 | 69 | 1004.0 |
| 20260509084925 | 57 | 246 | 0.0 | 1.0 | 0.00 | 0.00 | 0.00 | 69 | 1004.1 |
| 20260509084420 | 57 | 219 | 0.0 | 2.0 | 0.00 | 0.00 | 0.00 | 70 | 1004.1 |
| 20260509083408 | 57 | 210 | 1.0 | 3.0 | 0.00 | 0.00 | 0.00 | 70 | 1004.1 |
| 20260509082902 | 57 | 220 | 1.0 | 3.0 | 0.00 | 0.00 | 0.00 | 70 | 1004.1 |
| 20260509082355 | 57 | 207 | 0.0 | 2.0 | 0.00 | 0.00 | 0.00 | 70 | 1004.2 |
| 20260509082116 | 57 | 234 | 0.0 | 3.0 | 0.00 | 0.00 | 0.00 | 70 | 1004.2 |
| 20260509081344 | 57 | 231 | 0.0 | 3.0 | 0.00 | 0.00 | 0.00 | 70 | 1004.3 |
| 20260509081056 | 57 | 230 | 1.0 | 4.0 | 0.00 | 0.00 | 0.00 | 70 | 1004.4 |
| 20260509080331 | 57 | 228 | 0.0 | 4.0 | 0.00 | 0.00 | 0.00 | 70 | 1004.4 |
| 20260509075825 | 57 | 223 | 0.0 | 3.0 | 0.00 | 0.00 | 0.00 | 70 | 1004.4 |
| 20260509075320 | 58 | 205 | 0.0 | 5.0 | 0.00 | 0.00 | 0.00 | 69 | 1004.4 |
| 20260509074814 | 58 | 205 | 0.0 | 5.0 | 0.00 | 0.00 | 0.00 | 69 | 1004.5 |
| 20260509074308 | 58 | 179 | 0.0 | 3.0 | 0.00 | 0.00 | 0.00 | 69 | 1004.5 |
| 20260509073801 | 58 | 209 | 1.0 | 3.0 | 0.00 | 0.00 | 0.00 | 69 | 1004.4 |
| 20260509073256 | 58 | 221 | 1.0 | 4.0 | 0.00 | 0.00 | 0.00 | 69 | 1004.4 |
| 20260509072750 | 58 | 229 | 1.0 | 5.0 | 0.00 | 0.00 | 0.00 | 68 | 1004.3 |
| 20260509072244 | 58 | 231 | 1.0 | 5.0 | 0.00 | 0.00 | 0.00 | 69 | 1004.4 |
| 20260509071959 | 58 | 199 | 1.0 | 4.0 | 0.00 | 0.00 | 0.00 | 69 | 1004.3 |
| 20260509071232 | 57 | 169 | 1.0 | 4.0 | 0.00 | 0.00 | 0.00 | 70 | 1004.3 |
| 20260509070949 | 57 | 184 | 1.0 | 4.0 | 0.00 | 0.00 | 0.00 | 70 | 1004.4 |
| 20260509070220 | 57 | 228 | 2.0 | 5.0 | 0.00 | 0.00 | 0.00 | 70 | 1004.4 |
| 20260509065715 | 57 | 258 | 1.0 | 5.0 | 0.00 | 0.00 | 0.00 | 70 | 1004.6 |
| 20260509065207 | 57 | 240 | 1.0 | 5.0 | 0.00 | 0.00 | 0.00 | 71 | 1004.6 |
| 20260509064701 | 57 | 215 | 1.0 | 6.0 | 0.00 | 0.00 | 0.00 | 71 | 1004.6 |
| 20260509064156 | 57 | 203 | 2.0 | 7.0 | 0.00 | 0.00 | 0.00 | 71 | 1004.6 |
| 20260509063650 | 56 | 230 | 2.0 | 8.0 | 0.00 | 0.00 | 0.00 | 72 | 1004.7 |
| 20260509063144 | 56 | 202 | 2.0 | 8.0 | 0.00 | 0.00 | 0.00 | 73 | 1004.7 |
| 20260509062638 | 56 | 250 | 1.0 | 9.0 | 0.00 | 0.00 | 0.00 | 74 | 1004.7 |
| 20260509062132 | 56 | 245 | 1.0 | 9.0 | 0.00 | 0.00 | 0.00 | 74 | 1004.7 |
| 20260509061626 | 55 | 233 | 1.0 | 7.0 | 0.00 | 0.00 | 0.00 | 75 | 1004.8 |
| 20260509061120 | 55 | 157 | 1.0 | 5.0 | 0.00 | 0.00 | 0.00 | 75 | 1004.8 |
| 20260509060614 | 55 | 205 | 1.0 | 3.0 | 0.00 | 0.00 | 0.00 | 75 | 1004.9 |
| 20260509060108 | 55 | 227 | 0.0 | 3.0 | 0.00 | 0.00 | 0.00 | 76 | 1005.0 |
| 20260509055602 | 55 | 263 | 0.0 | 6.0 | 0.00 | 0.00 | 0.00 | 76 | 1005.0 |
| 20260509055100 | 54 | 243 | 0.0 | 6.0 | 0.00 | 0.00 | 0.00 | 76 | 1005.0 |
| 20260509054600 | 54 | 184 | 0.0 | 2.0 | 0.00 | 0.00 | 0.00 | 77 | 1005.0 |
| 20260509054059 | 54 | 94 | 0.0 | 1.0 | 0.00 | 0.00 | 0.00 | 77 | 1005.1 |
| 20260509053557 | 54 | 234 | 0.0 | 1.0 | 0.00 | 0.00 | 0.00 | 76 | 1005.1 |
| 20260509053054 | 54 | 234 | 0.0 | 2.0 | 0.00 | 0.00 | 0.00 | 76 | 1005.1 |
| 20260509052553 | 54 | 234 | 0.0 | 2.0 | 0.00 | 0.00 | 0.00 | 75 | 1005.0 |
| 20260509052050 | 54 | 204 | 0.0 | 2.0 | 0.00 | 0.00 | 0.00 | 75 | 1005.1 |
| 20260509051548 | 54 | 223 | 0.0 | 2.0 | 0.00 | 0.00 | 0.00 | 75 | 1005.1 |
| 20260509051051 | 54 | 46 | 0.0 | 1.0 | 0.00 | 0.00 | 0.00 | 75 | 1005.1 |
| 20260509050548 | 54 | 93 | 0.0 | 1.0 | 0.00 | 0.00 | 0.00 | 74 | 1005.0 |
| 20260509050046 | 55 | 233 | 0.0 | 2.0 | 0.00 | 0.00 | 0.00 | 74 | 1005.1 |
| 20260509045544 | 55 | 233 | 0.0 | 2.0 | 0.00 | 0.00 | 0.00 | 74 | 1005.1 |
| 20260509045044 | 55 | 240 | 0.0 | 1.0 | 0.00 | 0.00 | 0.00 | 74 | 1005.1 |
| 20260509044543 | 55 | 276 | 0.0 | 4.0 | 0.00 | 0.00 | 0.00 | 74 | 1005.1 |
| 20260509044043 | 55 | 224 | 0.0 | 4.0 | 0.00 | 0.00 | 0.00 | 73 | 1005.1 |
| 20260509043540 | 55 | 229 | 0.0 | 3.0 | 0.00 | 0.00 | 0.00 | 74 | 1005.1 |
| 20260509043040 | 55 | 231 | 0.0 | 3.0 | 0.00 | 0.00 | 0.00 | 74 | 1005.1 |
| 20260509042804 | 54 | 264 | 0.0 | 7.0 | 0.00 | 0.00 | 0.00 | 75 | 1005.1 |
| 20260509042038 | 54 | 244 | 0.0 | 7.0 | 0.00 | 0.00 | 0.00 | 76 | 1005.1 |
| 20260509041800 | 54 | 255 | 0.0 | 0.0 | 0.00 | 0.00 | 0.00 | 76 | 1005.0 |
| 20260509041035 | 54 | 255 | 0.0 | 2.0 | 0.00 | 0.00 | 0.00 | 76 | 1005.1 |
| 20260509040537 | 54 | 255 | 0.0 | 2.0 | 0.00 | 0.00 | 0.00 | 75 | 1005.1 |
| 20260509040035 | 54 | 169 | 0.0 | 0.0 | 0.00 | 0.00 | 0.00 | 75 | 1005.2 |
| 20260509035536 | 54 | 197 | 0.0 | 4.0 | 0.00 | 0.00 | 0.00 | 76 | 1005.2 |
| 20260509035037 | 54 | 197 | 0.0 | 4.0 | 0.00 | 0.00 | 0.00 | 76 | 1005.3 |
| 20260509034536 | 53 | 252 | 0.0 | 2.0 | 0.00 | 0.00 | 0.00 | 76 | 1005.3 |
| 20260509034254 | 53 | 205 | 0.0 | 0.0 | 0.00 | 0.00 | 0.00 | 77 | 1005.3 |
| 20260509033034 | 53 | 347 | 0.0 | 0.0 | 0.00 | 0.00 | 0.00 | 77 | 1005.4 |
| 20260509032534 | 53 | 347 | 0.0 | 0.0 | 0.00 | 0.00 | 0.00 | 77 | 1005.5 |
| 20260509032034 | 53 | 347 | 0.0 | 2.0 | 0.00 | 0.00 | 0.00 | 78 | 1005.5 |
| 20260509031534 | 53 | 347 | 0.0 | 2.0 | 0.00 | 0.00 | 0.00 | 79 | 1005.5 |
| 20260509031254 | 52 | 86 | 0.0 | 0.0 | 0.00 | 0.00 | 0.00 | 80 | 1005.5 |
| 20260509030534 | 52 | 86 | 0.0 | 2.0 | 0.00 | 0.00 | 0.00 | 80 | 1005.6 |
| 20260509030034 | 52 | 86 | 0.0 | 2.0 | 0.00 | 0.00 | 0.00 | 81 | 1005.6 |
| 20260509025532 | 51 | 220 | 0.0 | 0.0 | 0.00 | 0.00 | 0.00 | 82 | 1005.6 |
| 20260509024532 | 51 | 220 | 0.0 | 0.0 | 0.00 | 0.00 | 0.00 | 81 | 1005.5 |
| 20260509024032 | 52 | 220 | 0.0 | 0.0 | 0.00 | 0.00 | 0.00 | 81 | 1005.4 |
| 20260509023530 | 52 | 220 | 0.0 | 0.0 | 0.00 | 0.00 | 0.00 | 81 | 1005.5 |
| 20260509023024 | 53 | 220 | 0.0 | 0.0 | 0.00 | 0.00 | 0.00 | 80 | 1005.4 |
| 20260509022519 | 53 | 220 | 0.0 | 0.0 | 0.00 | 0.00 | 0.00 | 80 | 1005.4 |
| 20260509022014 | 53 | 220 | 0.0 | 0.0 | 0.00 | 0.00 | 0.00 | 80 | 1005.4 |
| 20260509021001 | 53 | 220 | 0.0 | 0.0 | 0.00 | 0.00 | 0.00 | 80 | 1005.3 |
| 20260509020455 | 53 | 220 | 0.0 | 0.0 | 0.00 | 0.00 | 0.00 | 80 | 1005.3 |
| 20260509020208 | 53 | 220 | 0.0 | 0.0 | 0.00 | 0.00 | 0.00 | 81 | 1005.3 |
| 20260509015444 | 53 | 220 | 0.0 | 0.0 | 0.00 | 0.00 | 0.00 | 81 | 1005.3 |
| 20260509014936 | 53 | 220 | 0.0 | 0.0 | 0.00 | 0.00 | 0.00 | 82 | 1005.2 |
| 20260509014430 | 53 | 220 | 0.0 | 0.0 | 0.00 | 0.00 | 0.00 | 82 | 1005.3 |
| 20260509014150 | 54 | 220 | 0.0 | 0.0 | 0.00 | 0.00 | 0.00 | 82 | 1005.2 |
| 20260509013419 | 54 | 220 | 0.0 | 0.0 | 0.00 | 0.00 | 0.00 | 81 | 1005.3 |
| 20260509012914 | 54 | 220 | 0.0 | 0.0 | 0.00 | 0.00 | 0.00 | 81 | 1005.3 |
| 20260509012407 | 55 | 220 | 0.0 | 0.0 | 0.00 | 0.00 | 0.00 | 81 | 1005.3 |
| 20260509011901 | 55 | 220 | 0.0 | 0.0 | 0.00 | 0.00 | 0.00 | 80 | 1005.3 |
| 20260509011355 | 55 | 220 | 0.0 | 0.0 | 0.00 | 0.00 | 0.00 | 80 | 1005.2 |
| 20260509010848 | 55 | 220 | 0.0 | 0.0 | 0.00 | 0.00 | 0.00 | 79 | 1005.2 |
| 20260509010344 | 56 | 220 | 0.0 | 0.0 | 0.00 | 0.00 | 0.00 | 78 | 1005.1 |
| 20260509005836 | 56 | 220 | 0.0 | 0.0 | 0.00 | 0.00 | 0.00 | 77 | 1005.1 |
| 20260509005331 | 56 | 220 | 0.0 | 0.0 | 0.00 | 0.00 | 0.00 | 76 | 1005.0 |
| 20260509004825 | 57 | 220 | 0.0 | 0.0 | 0.00 | 0.00 | 0.00 | 76 | 1004.9 |
| 20260509004319 | 57 | 220 | 0.0 | 0.0 | 0.00 | 0.00 | 0.00 | 74 | 1004.9 |
| 20260509003814 | 58 | 220 | 0.0 | 0.0 | 0.00 | 0.00 | 0.00 | 72 | 1004.9 |
| 20260509003307 | 58 | 220 | 0.0 | 0.0 | 0.00 | 0.00 | 0.00 | 72 | 1004.8 |
| 20260509002801 | 59 | 220 | 0.0 | 0.0 | 0.00 | 0.00 | 0.00 | 70 | 1004.8 |
| 20260509002255 | 59 | 220 | 0.0 | 0.0 | 0.00 | 0.00 | 0.00 | 69 | 1004.7 |
| 20260509001749 | 60 | 220 | 0.0 | 0.0 | 0.00 | 0.00 | 0.00 | 68 | 1004.7 |
| 20260509001244 | 60 | 220 | 0.0 | 0.0 | 0.00 | 0.00 | 0.00 | 67 | 1004.6 |
| 20260509000736 | 61 | 220 | 0.0 | 0.0 | 0.00 | 0.00 | 0.00 | 66 | 1004.6 |
| 20260509000449 | 61 | 220 | 0.0 | 0.0 | 0.00 | 0.00 | 0.00 | 65 | 1004.5 |
| 20260508235958 | 62 | 220 | 0.0 | 0.0 | 0.00 | 0.00 | 0.00 | 64 | 1004.5 |
| 20260508235217 | 62 | 220 | 0.0 | 0.0 | 0.00 | 0.00 | 0.00 | 63 | 1004.4 |
| 20260508234711 | 63 | 220 | 0.0 | 0.0 | 0.00 | 0.00 | 0.00 | 61 | 1004.5 |
| 20260508234204 | 63 | 220 | 0.0 | 0.0 | 0.00 | 0.00 | 0.00 | 59 | 1004.4 |
| 20260508233659 | 64 | 220 | 0.0 | 0.0 | 0.00 | 0.00 | 0.00 | 58 | 1004.4 |
| 20260508233154 | 65 | 220 | 0.0 | 0.0 | 0.00 | 0.00 | 0.00 | 55 | 1004.4 |
| 20260508232646 | 65 | 227 | 0.0 | 0.0 | 0.00 | 0.00 | 0.00 | 49 | 1004.4 |
| 20260508232407 | 65 | 227 | 0.0 | 0.0 | 0.00 | 0.00 | 0.00 | 46 | 1004.3 |
| 20260508231636 | 66 | 227 | 0.0 | 0.0 | 0.00 | 0.00 | 0.00 | 45 | 1004.3 |
| 20260508231131 | 66 | 174 | 0.0 | 0.0 | 0.00 | 0.00 | 0.00 | 45 | 1004.1 |
| 20260508230631 | 66 | 174 | 0.0 | 1.0 | 0.00 | 0.00 | 0.00 | 45 | 1004.2 |
| 20260508230131 | 66 | 210 | 0.0 | 2.0 | 0.00 | 0.00 | 0.00 | 45 | 1004.0 |
| 20260508225856 | 67 | 210 | 0.0 | 4.0 | 0.00 | 0.00 | 0.00 | 45 | 1004.0 |